Location: Arroyo Grande
(40.2671°N, 4.2512°W)
Time: 19:10:17
(UTC+00:00)

PAYLOAD B - Pass Details

Date: 03 February 2023
Orbit: 849 x 870 km, 99.1° (Epoch: 22 March)

Event Time Altitude Azimuth Distance (km) Brightness Sun altitude
Rises 18:45:13 0° 158° (SSE) 3,418 7.2 -13.2°
Reaches altitude 10° 18:47:35 10° 156° (SSE) 2,482 6.5 -13.7°
Maximum altitude 18:53:04 71° 73° (ENE) 902 4.1 -14.7°
Drops below altitude 10° 18:58:33 10° 351° (N) 2,487 6.7 -15.7°
Sets 19:00:56 0° 349° (N) 3,425 7.4 -16.2°
